EDT,Max TemperatureF,Mean TemperatureF,Min TemperatureF,Max Dew PointF,MeanDew PointF,Min DewpointF,Max Humidity, Mean Humidity, Min Humidity, Max Sea Level PressureIn, Mean Sea Level PressureIn, Min Sea Level PressureIn, Max VisibilityMiles, Mean VisibilityMiles, Min VisibilityMiles, Max Wind SpeedMPH, Mean Wind SpeedMPH, Max Gust SpeedMPH,PrecipitationIn, CloudCover, Events, WindDirDegrees
2013-9-1,88,80,73,77,75,71,100,88,61,29.93,29.88,29.84,10,9,4,15,6,17,0.14,,Rain,217
2013-9-2,87,80,73,76,74,72,100,87,63,29.88,29.84,29.80,10,10,7,13,9,20,0.23,,Rain,224
2013-9-3,87,78,68,78,74,68,100,94,65,29.94,29.85,29.81,10,8,2,18,6,25,0.08,,Rain,222
2013-9-4,81,74,66,72,68,66,100,84,61,30.09,30.03,29.94,10,8,0,9,3,,0.00,,Rain,85
2013-9-5,86,77,68,74,69,64,100,81,47,30.09,30.05,30.00,10,8,0,8,1,,0.00,,Fog,235
2013-9-6,78,70,63,72,65,58,100,82,62,30.15,30.11,30.05,10,9,4,13,5,23,0.00,,,46
2013-9-7,77,67,57,63,58,56,95,72,48,30.13,30.07,29.99,10,10,10,9,4,,0.00,,,95
2013-9-8,85,76,66,70,65,58,96,73,53,30.00,29.95,29.89,10,10,10,9,5,,0.00,,,225
2013-9-9,85,75,65,74,69,66,100,82,52,30.18,30.10,29.99,10,8,0,9,3,,0.00,,Fog,87
2013-9-10,86,76,65,74,69,62,100,78,45,30.25,30.20,30.17,10,10,5,10,3,,0.00,,,167
2013-9-11,86,77,68,75,70,68,100,80,56,30.22,30.16,30.09,10,9,5,9,3,,0.00,,,199
2013-9-12,87,80,73,72,71,69,92,75,56,30.09,29.95,29.80,10,10,10,13,7,18,0.00,,,221
2013-9-13,84,76,68,72,67,62,93,73,50,29.87,29.77,29.73,10,10,7,10,7,18,0.00,,,323
2013-9-14,75,67,59,65,58,54,94,74,51,30.15,30.01,29.87,10,10,10,13,6,18,0.00,,,16
2013-9-15,77,66,54,62,56,51,100,73,43,30.25,30.19,30.15,10,10,10,10,2,16,0.00,,,142
2013-9-16,82,73,64,74,67,61,100,86,59,30.18,30.11,30.02,10,10,1,12,4,22,0.25,,Rain,257
2013-9-17,74,64,54,61,56,50,99,76,48,30.31,30.26,30.18,10,10,10,16,7,23,0.00,,,28
2013-9-18,75,64,53,57,54,50,95,74,45,30.30,30.24,30.19,10,10,10,14,6,,0.00,,,44
2013-9-19,75,63,51,60,55,50,96,74,45,30.20,30.16,30.11,10,10,10,10,2,,0.00,,,87
2013-9-20,78,70,62,63,60,54,96,74,44,30.10,30.06,30.00,10,10,10,8,2,,0.00,,,128
2013-9-21,80,68,56,71,65,57,100,87,62,30.00,29.87,29.76,10,10,7,9,3,,0.00,,,196
2013-9-22,71,71,71,70,70,70,95,94,94,29.87,29.78,29.74,10,9,4,13,5,23,0.47,,Rain,26
2013-9-23,,,,,,,,,,30.08,30.00,29.87,10,10,10,13,6,18,0.00,,,13
2013-9-24,73,64,55,58,54,48,94,68,43,30.11,30.04,29.97,10,10,10,10,1,,0.00,,,354
2013-9-25,71,62,52,61,56,52,100,83,58,29.98,29.93,29.88,10,10,5,8,1,,0.00,,,132
2013-9-26,77,68,58,60,58,54,96,77,45,30.02,29.93,29.88,10,10,10,10,3,17,0.00,,,33
2013-9-27,74,66,57,62,56,50,100,77,45,30.17,30.10,30.02,10,10,10,15,7,22,0.00,,,30
2013-9-28,72,63,54,61,57,54,96,81,59,30.21,30.17,30.14,10,10,10,13,7,21,0.00,,,24
2013-9-29,74,64,55,64,58,54,99,84,60,30.15,30.08,30.02,10,10,10,10,6,,0.00,,,21
2013-9-30,75,64,53,58,55,49,99,78,43,30.07,30.04,29.99,10,10,10,12,5,,0.00,,,359